TimeCDT,TemperatureF,Dew PointF,Humidity,Sea Level PressureIn,VisibilityMPH,Wind Direction,Wind SpeedMPH,Gust SpeedMPH,PrecipitationIn,Events,Conditions,WindDirDegrees,DateUTC
12:15 AM,48.2,46.4,93,29.94,1.0,SSW,4.6,-,N/A,,Overcast,200,2013-03-31 05:15:00
12:35 AM,48.2,46.4,93,29.93,1.5,SSW,4.6,-,N/A,,Overcast,200,2013-03-31 05:35:00
12:55 AM,48.2,46.4,93,29.92,2.5,SSW,4.6,-,N/A,,Overcast,200,2013-03-31 05:55:00
1:15 AM,46.4,46.4,100,29.92,3.0,SW,4.6,-,N/A,,Overcast,220,2013-03-31 06:15:00
1:35 AM,46.4,44.6,93,29.92,3.0,SW,3.5,-,N/A,,Overcast,220,2013-03-31 06:35:00
1:55 AM,46.4,44.6,93,29.92,2.0,Calm,Calm,-,N/A,,Overcast,0,2013-03-31 06:55:00
2:15 AM,46.4,44.6,93,29.91,0.2,Calm,Calm,-,N/A,,Overcast,0,2013-03-31 07:15:00
2:35 AM,44.6,44.6,100,29.90,0.2,Calm,Calm,-,N/A,,Overcast,0,2013-03-31 07:35:00
2:55 AM,44.6,42.8,93,29.91,0.5,WNW,3.5,-,N/A,,Overcast,300,2013-03-31 07:55:00
3:15 AM,46.4,44.6,93,29.91,2.0,WNW,3.5,-,N/A,,Overcast,300,2013-03-31 08:15:00
3:35 AM,46.4,46.4,100,29.90,3.0,NW,4.6,-,N/A,,Overcast,310,2013-03-31 08:35:00
3:55 AM,46.4,46.4,100,29.90,1.2,WNW,4.6,-,N/A,,Overcast,300,2013-03-31 08:55:00
4:15 AM,46.4,46.4,100,29.89,0.5,Calm,Calm,-,N/A,,Overcast,0,2013-03-31 09:15:00
4:35 AM,46.4,46.4,100,29.89,0.5,WNW,3.5,-,N/A,,Overcast,290,2013-03-31 09:35:00
4:55 AM,46.4,46.4,100,29.89,0.5,Calm,Calm,-,N/A,,Overcast,0,2013-03-31 09:55:00
5:15 AM,46.4,46.4,100,29.90,0.5,Calm,Calm,-,N/A,,Overcast,0,2013-03-31 10:15:00
5:35 AM,46.4,46.4,100,29.90,1.2,Calm,Calm,-,N/A,,Overcast,0,2013-03-31 10:35:00
5:55 AM,46.4,46.4,100,29.90,2.5,SSW,3.5,-,N/A,,Overcast,200,2013-03-31 10:55:00
6:15 AM,46.4,44.6,93,29.90,3.0,Calm,Calm,-,N/A,,Overcast,0,2013-03-31 11:15:00
6:35 AM,46.4,46.4,100,29.91,3.0,West,3.5,-,N/A,,Overcast,260,2013-03-31 11:35:00
6:55 AM,46.4,46.4,100,29.92,4.0,NNW,4.6,-,N/A,,Overcast,330,2013-03-31 11:55:00
7:15 AM,48.2,46.4,93,29.93,9.0,NW,5.8,-,N/A,,Overcast,320,2013-03-31 12:15:00
7:35 AM,48.2,46.4,93,29.94,8.0,NW,6.9,-,N/A,,Overcast,320,2013-03-31 12:35:00
7:55 AM,48.2,46.4,93,29.94,8.0,NW,5.8,-,N/A,,Mostly Cloudy,310,2013-03-31 12:55:00
8:15 AM,48.2,46.4,93,29.95,7.0,NW,5.8,-,N/A,,Overcast,320,2013-03-31 13:15:00
8:35 AM,48.2,46.4,93,29.95,7.0,NW,5.8,-,N/A,,Overcast,320,2013-03-31 13:35:00
8:55 AM,48.2,46.4,93,29.94,7.0,NW,4.6,-,N/A,,Mostly Cloudy,310,2013-03-31 13:55:00
9:15 AM,50.0,46.4,87,29.95,6.0,NW,6.9,-,N/A,,Mostly Cloudy,310,2013-03-31 14:15:00
9:35 AM,50.0,48.2,94,29.94,7.0,SSW,4.6,-,N/A,,Overcast,210,2013-03-31 14:35:00
9:55 AM,50.0,48.2,94,29.94,6.0,Calm,Calm,-,N/A,,Scattered Clouds,0,2013-03-31 14:55:00
10:15 AM,51.8,48.2,88,29.93,8.0,Calm,Calm,-,N/A,,Partly Cloudy,0,2013-03-31 15:15:00
10:35 AM,53.6,50.0,88,29.93,10.0,SW,3.5,-,N/A,,Clear,220,2013-03-31 15:35:00
10:55 AM,55.4,48.2,77,29.92,10.0,Calm,Calm,-,N/A,,Clear,0,2013-03-31 15:55:00
11:15 AM,57.2,44.6,63,29.92,10.0,Calm,Calm,-,N/A,,Clear,0,2013-03-31 16:15:00
11:35 AM,59.0,42.8,55,29.91,10.0,WSW,3.5,-,N/A,,Clear,240,2013-03-31 16:35:00
11:55 AM,60.8,39.2,45,29.91,10.0,NW,4.6,-,N/A,,Clear,310,2013-03-31 16:55:00
12:15 PM,62.6,41.0,45,29.91,10.0,North,6.9,-,N/A,,Partly Cloudy,360,2013-03-31 17:15:00
12:35 PM,62.6,41.0,45,29.91,10.0,ENE,3.5,-,N/A,,Partly Cloudy,60,2013-03-31 17:35:00
12:55 PM,62.6,42.8,48,29.91,10.0,NW,5.8,-,N/A,,Partly Cloudy,310,2013-03-31 17:55:00
1:15 PM,62.6,41.0,45,29.92,10.0,WNW,4.6,-,N/A,,Mostly Cloudy,300,2013-03-31 18:15:00
1:35 PM,62.6,39.2,42,29.91,10.0,West,4.6,-,N/A,,Mostly Cloudy,280,2013-03-31 18:35:00
1:55 PM,64.4,39.2,40,29.90,10.0,NW,6.9,-,N/A,,Mostly Cloudy,310,2013-03-31 18:55:00
2:15 PM,64.4,39.2,40,29.90,10.0,WSW,6.9,-,N/A,,Mostly Cloudy,250,2013-03-31 19:15:00
2:35 PM,64.4,37.4,37,29.90,10.0,West,9.2,17.3,N/A,,Mostly Cloudy,280,2013-03-31 19:35:00
2:55 PM,64.4,35.6,34,29.89,10.0,WSW,8.1,-,N/A,,Mostly Cloudy,250,2013-03-31 19:55:00
3:15 PM,64.4,33.8,32,29.89,10.0,West,10.4,18.4,N/A,,Mostly Cloudy,280,2013-03-31 20:15:00
3:35 PM,64.4,35.6,34,29.89,10.0,WNW,8.1,-,N/A,,Scattered Clouds,300,2013-03-31 20:35:00
3:55 PM,64.4,35.6,34,29.90,10.0,West,6.9,-,N/A,,Partly Cloudy,270,2013-03-31 20:55:00
4:15 PM,64.4,35.6,34,29.90,10.0,WNW,10.4,-,N/A,,Partly Cloudy,300,2013-03-31 21:15:00
4:35 PM,66.2,35.6,32,29.89,10.0,WNW,10.4,17.3,N/A,,Partly Cloudy,290,2013-03-31 21:35:00
4:55 PM,66.2,33.8,30,29.89,10.0,West,11.5,17.3,N/A,,Partly Cloudy,260,2013-03-31 21:55:00
5:15 PM,66.2,32.0,28,29.89,10.0,West,9.2,16.1,N/A,,Scattered Clouds,270,2013-03-31 22:15:00
5:35 PM,66.2,30.2,26,29.89,10.0,West,11.5,17.3,N/A,,Partly Cloudy,280,2013-03-31 22:35:00
5:55 PM,64.4,30.2,28,29.89,10.0,West,11.5,18.4,N/A,,Scattered Clouds,280,2013-03-31 22:55:00
6:15 PM,64.4,32.0,30,29.89,10.0,WNW,4.6,-,N/A,,Partly Cloudy,290,2013-03-31 23:15:00
6:35 PM,64.4,30.2,28,29.90,10.0,West,8.1,-,N/A,,Clear,270,2013-03-31 23:35:00
7:15 PM,62.6,30.2,30,29.90,10.0,NW,6.9,-,N/A,,Partly Cloudy,310,2013-04-01 00:15:00
7:35 PM,60.8,30.2,31,29.91,10.0,WNW,5.8,-,N/A,,Clear,300,2013-04-01 00:35:00
7:55 PM,60.8,28.4,29,29.90,10.0,Calm,Calm,-,N/A,,Clear,0,2013-04-01 00:55:00
8:15 PM,57.2,30.2,36,29.91,10.0,Calm,Calm,-,N/A,,Mostly Cloudy,0,2013-04-01 01:15:00
8:35 PM,55.4,30.2,38,29.91,10.0,Calm,Calm,-,N/A,,Overcast,0,2013-04-01 01:35:00
9:15 PM,51.8,33.8,50,29.92,10.0,Calm,Calm,-,N/A,,Overcast,0,2013-04-01 02:15:00
9:35 PM,51.8,35.6,54,29.93,10.0,Calm,Calm,-,N/A,,Overcast,0,2013-04-01 02:35:00
9:55 PM,53.6,33.8,47,29.93,10.0,NW,3.5,-,N/A,,Overcast,310,2013-04-01 02:55:00
10:15 PM,55.4,35.6,47,29.94,10.0,NNW,9.2,16.1,N/A,,Mostly Cloudy,340,2013-04-01 03:15:00
10:35 PM,55.4,37.4,51,29.94,10.0,NNW,8.1,-,N/A,,Partly Cloudy,330,2013-04-01 03:35:00
11:15 PM,53.6,37.4,54,29.96,10.0,NNW,6.9,-,N/A,,Clear,330,2013-04-01 04:15:00
11:35 PM,53.6,39.2,58,29.95,10.0,NNW,5.8,-,N/A,,Clear,330,2013-04-01 04:35:00
11:55 PM,53.6,37.4,54,29.95,10.0,NNW,8.1,-,N/A,,Clear,330,2013-04-01 04:55:00